SCP
0 0 -0 0 -0 -0 -0 -0 -0 -0 0 0 0 -0 -0 -0 -0 -0 0 -0 0 -0 -0 -0 -0 0 0 0 0 0 -0 0
0 0 0 -0 -0 0 0 0 0 0 0 0 -0 -0 0 -0 -0 -0 0 -0 -0 -0 -0 -0 -0 0 0 0 0 -0 -0 -0
0 -0 -0 -0 0 -0 0 -0 0 0 0 0 0 -0 -0 -0 -0 -0 0 -0 0 -0 -0 -0 -0 0 0 0 0 0 0 0
-0 -0 -0 -0 -0 -0 -0 0 0 0 0 0 -0 -0 -0 -0 -0 -0 0 -0 0 -0 -0 0 0 0 0 0 0 0 0 0
0 -0 -0 -0 -0 -0 -0 -0 0 0 0 0 0 -0 -0 -0 -0 -0 -0 -0 -0 0 0 0 0 0 0 0 0 -0 -0 -0
0 -0 -0 -0 -0 -0 0 -0 0 0 0 -0 -0 -0 -0 -0 -0 -0 0 -0 -0 -0 -0 -0 -0 0 0 0 0 -0 -0 -0
0 0 -0 0 -0 -0 -0 -0 0 0 0 -0 -0 -0 -0 -0 0 0 0 0 0 0 -0 -0 -0 -0 -0 -0 -0 -0 -0 -0
0 0 0 0 0 0 0 -0 0 -0 -0 -0 -0 -0 0 0 0 0 0 0 0 -0 0 -0 -0 -0 -0 -0 -0 -0 0 -0
0 0 0 0 0 0 0 -0 0 0 -0 -0 -0 -0 0 0 0 0 0 0 -0 -0 -0 -0 0 0 0 -0 0 0 0 0
0 0 0 0 0 0 0 0 -0 0 0 0 -0 -0 0 0 0 0 0 0 0 -0 -0 -0 0 0 0 0 0 0 -0 -0
0 0 0 0 0 0 0 0 0 0 0 0 0 0 0 0 0 0 0 0 0 0 0 0 0 0 0 -0 -0 -0 -0 -0
0 0 0 0 0 0 0 0 0 -0 0 0 0 0 0 0 0 0 0 0 0 0 0 0 0 0 0 0 0 -0 -0 -0
0 0 0 0 0 0 0 0 0 0 0 0 0 0 0 0 0 0 0 0 0 0 0 0 0 0 0 0 0 0 0 0
0 0 0 0 0 0 0 0 0 0 0 0 0 0 0 0 0 0 0 0 0 0 0 0 0 0 0 0 0 0 0 0
0 0 0 0 0 0 0 0 0 0 0 0 0 0 0 0 0 0 0 0 0 0 0 0 0 0 0 0 0 0 0 0
0 0 0 0 -0 0 0 0 0 0 0 0 0 0 0 0 0 0 0 0 0 0 0 0 0 0 0 0 0 0 0 0
0 0 0 0 0 0 0 0 0 0 0 0 0 0 0 0 0 0 0 0 0 0 0 0 0 0 0 0 0 0 0 0
0 0 0 0 0 0 0 0 0 0 0 0 0 0 0 0 0 0 0 0 0 0 0 0 0 0 0 0 0 0 0 0
0 0 0 0 0 0 0 0 0 0 0 0 0 0 0 0 0 0 0 0 0 0 0 0 0 0 0 0 0 0 0 0
0 0 0 0 0 0 0 0 0 0 0 0 0 0 0 0 0 0 0 0 0 0 0 0 0 0 0 0 0 0 0 0
Wind_Speed_500mb
8 5 6 8 6 9 5 8 8 7 21 8 6 18 43 27 41 35 34 36 34 34 37 39 39 38 38 36 35 32 29 29
9 4 5 7 10 15 2 6 20 12 13 14 12 18 22 34 40 35 36 35 32 32 34 36 37 36 35 33 31 29 27 27
6 6 6 7 28 14 9 9 18 12 5 12 9 14 31 37 35 34 36 34 31 28 29 31 32 32 31 30 28 26 25 24
3 8 5 8 17 7 6 20 24 15 7 5 11 27 36 33 34 31 31 31 29 26 25 26 28 28 27 27 25 24 22 20
8 7 7 10 5 3 9 20 15 12 6 5 25 35 37 37 35 33 31 29 28 27 24 23 24 24 23 22 22 21 19 17
8 12 9 4 9 6 11 11 18 8 9 12 28 37 36 34 32 31 30 28 28 27 25 24 24 24 22 20 19 17 16 14
11 15 9 21 7 8 7 19 10 2 8 25 45 40 37 37 32 29 28 28 29 28 26 25 23 22 22 21 19 17 15 13
14 16 12 23 21 20 10 18 9 36 35 43 44 39 42 42 37 32 28 28 29 28 27 25 22 22 20 19 17 17 18 18
9 21 41 37 15 13 23 6 8 24 49 51 48 41 42 39 34 32 29 26 28 27 24 21 19 21 21 21 21 23 23 20
6 29 38 33 30 13 9 11 25 45 52 55 53 46 41 43 39 32 27 25 26 25 22 19 16 16 19 18 20 20 20 20
15 36 37 38 16 17 19 26 39 44 47 52 49 46 42 37 36 33 27 24 25 27 26 19 19 16 19 20 23 23 23 23
22 28 15 21 14 13 17 34 40 43 47 47 46 43 40 36 32 30 28 23 22 24 25 20 19 17 18 19 22 25 28 28
6 10 9 39 2 6 41 41 44 46 46 44 41 37 33 31 29 28 27 26 22 23 23 20 20 19 18 19 18 19 20 21
6 6 14 5 14 13 51 53 48 46 42 40 36 32 29 24 21 23 25 25 26 25 23 22 23 23 23 21 21 21 23 22
2 12 8 5 11 23 54 53 46 45 42 37 34 30 25 22 22 21 22 24 27 31 32 34 34 34 31 29 26 22 18 18
12 24 12 8 21 20 47 45 47 48 42 37 32 27 23 19 16 16 18 20 21 23 26 28 29 29 28 26 22 18 18 18
11 5 13 26 19 18 36 34 41 48 49 42 34 28 19 13 9 10 15 16 18 17 19 19 21 22 21 18 16 13 12 13
10 5 21 16 29 7 30 30 44 51 49 46 41 32 21 16 14 13 13 13 15 20 22 24 23 21 18 13 10 10 14 18
17 5 7 11 12 10 12 19 39 49 53 51 50 40 31 22 15 12 11 12 14 15 16 18 17 16 13 10 6 7 9 12
17 12 11 17 12 11 17 17 27 47 56 60 54 42 36 29 23 18 17 15 13 14 14 14 11 9 7 5 3 4 4 8
Wind_Direction_500mb
78 94 137 174 197 185 208 23 30 99 53 68 94 122 137 138 150 159 158 146 142 144 144 139 136 135 133 134 134 131 125 119
71 303 229 199 244 192 67 91 78 97 87 86 108 127 146 146 153 157 152 144 143 145 144 138 139 137 135 136 135 131 124 120
65 287 250 250 250 237 144 71 34 35 84 98 161 164 152 146 149 155 147 145 144 147 144 140 138 138 138 137 135 133 129 124
198 258 245 264 192 207 45 93 49 86 55 56 145 151 144 145 149 150 148 147 146 146 146 142 139 140 140 139 138 137 133 128
175 222 280 216 149 102 129 98 51 89 67 111 145 150 153 152 151 149 151 151 152 151 151 147 144 143 143 142 142 139 135 132
213 198 246 124 105 110 76 60 122 103 181 176 171 159 151 153 151 150 153 157 158 160 159 157 155 154 153 155 152 147 144 141
213 171 223 160 121 125 112 90 72 12 176 183 168 152 151 152 150 155 160 163 165 166 166 167 168 165 166 167 165 159 160 164
204 174 174 158 141 141 122 109 92 96 119 162 157 157 156 157 155 160 162 171 171 169 170 171 180 181 181 181 174 173 181 185
243 199 163 144 116 134 128 117 191 154 138 157 163 160 157 153 155 156 165 170 167 169 173 175 182 192 193 194 191 197 199 199
161 169 150 141 140 105 152 128 170 163 160 166 165 164 161 154 156 161 168 174 180 181 185 191 190 192 191 193 198 204 204 204
146 146 130 133 112 124 108 148 159 162 162 160 162 161 162 161 161 167 178 183 193 201 203 212 208 213 215 220 223 226 232 234
114 121 106 113 133 123 164 162 158 165 159 160 163 166 167 168 173 177 187 190 185 193 204 215 216 220 221 227 238 245 247 249
48 124 109 112 350 210 167 173 156 156 154 156 160 162 170 174 182 184 194 196 196 195 200 210 218 222 223 224 228 236 248 253
284 114 153 146 233 142 168 171 157 154 156 157 156 166 172 180 186 192 195 201 212 223 224 220 221 219 218 221 225 229 236 242
143 212 147 158 252 161 176 175 160 166 165 164 164 169 175 184 194 203 206 205 206 211 216 218 220 224 228 230 232 233 232 241
210 200 196 190 257 159 179 178 169 176 177 176 176 176 184 192 202 211 215 217 214 210 210 209 208 212 214 217 226 237 251 264
256 156 153 221 247 185 186 189 171 180 185 182 182 185 180 185 202 234 246 248 235 228 217 208 209 215 222 222 233 246 266 283
310 196 180 202 243 181 178 207 193 183 188 186 185 177 174 183 190 200 209 219 222 224 223 223 226 231 226 230 241 285 307 313
207 108 50 103 305 201 207 177 200 208 203 194 188 174 171 167 161 158 164 165 175 181 189 193 196 209 215 225 240 268 304 319
159 131 206 176 252 252 194 179 192 189 195 192 181 175 173 168 153 143 138 137 146 153 163 169 178 201 203 201 173 118 70 47
Wind_Speed_850mb
8 5 6 8 6 9 5 8 8 7 21 8 6 18 43 27 41 35 34 36 34 34 37 39 39 38 38 36 35 32 29 29
9 4 5 7 10 15 2 6 20 12 13 14 12 18 22 34 40 35 36 35 32 32 34 36 37 36 35 33 31 29 27 27
6 6 6 7 28 14 9 9 18 12 5 12 9 14 31 37 35 34 36 34 31 28 29 31 32 32 31 30 28 26 25 24
3 8 5 8 17 7 6 20 24 15 7 5 11 27 36 33 34 31 31 31 29 26 25 26 28 28 27 27 25 24 22 20
8 7 7 10 5 3 9 20 15 12 6 5 25 35 37 37 35 33 31 29 28 27 24 23 24 24 23 22 22 21 19 17
8 12 9 4 9 6 11 11 18 8 9 12 28 37 36 34 32 31 30 28 28 27 25 24 24 24 22 20 19 17 16 14
11 15 9 21 7 8 7 19 10 2 8 25 45 40 37 37 32 29 28 28 29 28 26 25 23 22 22 21 19 17 15 13
14 16 12 23 21 20 10 18 9 36 35 43 44 39 42 42 37 32 28 28 29 28 27 25 22 22 20 19 17 17 18 18
9 21 41 37 15 13 23 6 8 24 49 51 48 41 42 39 34 32 29 26 28 27 24 21 19 21 21 21 21 23 23 20
6 29 38 33 30 13 9 11 25 45 52 55 53 46 41 43 39 32 27 25 26 25 22 19 16 16 19 18 20 20 20 20
15 36 37 38 16 17 19 26 39 44 47 52 49 46 42 37 36 33 27 24 25 27 26 19 19 16 19 20 23 23 23 23
22 28 15 21 14 13 17 34 40 43 47 47 46 43 40 36 32 30 28 23 22 24 25 20 19 17 18 19 22 25 28 28
6 10 9 39 2 6 41 41 44 46 46 44 41 37 33 31 29 28 27 26 22 23 23 20 20 19 18 19 18 19 20 21
6 6 14 5 14 13 51 53 48 46 42 40 36 32 29 24 21 23 25 25 26 25 23 22 23 23 23 21 21 21 23 22
2 12 8 5 11 23 54 53 46 45 42 37 34 30 25 22 22 21 22 24 27 31 32 34 34 34 31 29 26 22 18 18
12 24 12 8 21 20 47 45 47 48 42 37 32 27 23 19 16 16 18 20 21 23 26 28 29 29 28 26 22 18 18 18
11 5 13 26 19 18 36 34 41 48 49 42 34 28 19 13 9 10 15 16 18 17 19 19 21 22 21 18 16 13 12 13
10 5 21 16 29 7 30 30 44 51 49 46 41 32 21 16 14 13 13 13 15 20 22 24 23 21 18 13 10 10 14 18
17 5 7 11 12 10 12 19 39 49 53 51 50 40 31 22 15 12 11 12 14 15 16 18 17 16 13 10 6 7 9 12
17 12 11 17 12 11 17 17 27 47 56 60 54 42 36 29 23 18 17 15 13 14 14 14 11 9 7 5 3 4 4 8
Wind_Direction_850mb
78 94 137 174 197 185 208 23 30 99 53 68 94 122 137 138 150 159 158 146 142 144 144 139 136 135 133 134 134 131 125 119
71 303 229 199 244 192 67 91 78 97 87 86 108 127 146 146 153 157 152 144 143 145 144 138 139 137 135 136 135 131 124 120
65 287 250 250 250 237 144 71 34 35 84 98 161 164 152 146 149 155 147 145 144 147 144 140 138 138 138 137 135 133 129 124
198 258 245 264 192 207 45 93 49 86 55 56 145 151 144 145 149 150 148 147 146 146 146 142 139 140 140 139 138 137 133 128
175 222 280 216 149 102 129 98 51 89 67 111 145 150 153 152 151 149 151 151 152 151 151 147 144 143 143 142 142 139 135 132
213 198 246 124 105 110 76 60 122 103 181 176 171 159 151 153 151 150 153 157 158 160 159 157 155 154 153 155 152 147 144 141
213 171 223 160 121 125 112 90 72 12 176 183 168 152 151 152 150 155 160 163 165 166 166 167 168 165 166 167 165 159 160 164
204 174 174 158 141 141 122 109 92 96 119 162 157 157 156 157 155 160 162 171 171 169 170 171 180 181 181 181 174 173 181 185
243 199 163 144 116 134 128 117 191 154 138 157 163 160 157 153 155 156 165 170 167 169 173 175 182 192 193 194 191 197 199 199
161 169 150 141 140 105 152 128 170 163 160 166 165 164 161 154 156 161 168 174 180 181 185 191 190 192 191 193 198 204 204 204
146 146 130 133 112 124 108 148 159 162 162 160 162 161 162 161 161 167 178 183 193 201 203 212 208 213 215 220 223 226 232 234
114 121 106 113 133 123 164 162 158 165 159 160 163 166 167 168 173 177 187 190 185 193 204 215 216 220 221 227 238 245 247 249
48 124 109 112 350 210 167 173 156 156 154 156 160 162 170 174 182 184 194 196 196 195 200 210 218 222 223 224 228 236 248 253
284 114 153 146 233 142 168 171 157 154 156 157 156 166 172 180 186 192 195 201 212 223 224 220 221 219 218 221 225 229 236 242
143 212 147 158 252 161 176 175 160 166 165 164 164 169 175 184 194 203 206 205 206 211 216 218 220 224 228 230 232 233 232 241
210 200 196 190 257 159 179 178 169 176 177 176 176 176 184 192 202 211 215 217 214 210 210 209 208 212 214 217 226 237 251 264
256 156 153 221 247 185 186 189 171 180 185 182 182 185 180 185 202 234 246 248 235 228 217 208 209 215 222 222 233 246 266 283
310 196 180 202 243 181 178 207 193 183 188 186 185 177 174 183 190 200 209 219 222 224 223 223 226 231 226 230 241 285 307 313
207 108 50 103 305 201 207 177 200 208 203 194 188 174 171 167 161 158 164 165 175 181 189 193 196 209 215 225 240 268 304 319
159 131 206 176 252 252 194 179 192 189 195 192 181 175 173 168 153 143 138 137 146 153 163 169 178 201 203 201 173 118 70 47